Time,TemperatureF,DewpointF,PressureIn,WindDirection,WindDirectionDegrees,WindSpeedMPH,WindSpeedGustMPH,Humidity,HourlyPrecipIn,Conditions,Clouds,dailyrainin,SoftwareType,DateUTC
2013-03-03 00:02:00,19.0,13.0,30.05,NW,312,2.0,7.0,78,0.00,,,0.00,,2013-03-03 05:02:00,
2013-03-03 00:12:00,19.0,13.0,30.05,NW,312,2.0,7.0,78,0.00,,,0.00,,2013-03-03 05:12:00,
2013-03-03 00:22:00,19.0,13.0,30.04,NNW,333,3.0,7.0,77,0.00,,,0.00,,2013-03-03 05:22:00,
2013-03-03 00:32:00,19.0,13.0,30.04,NW,317,5.0,10.0,76,0.00,,,0.00,,2013-03-03 05:32:00,
2013-03-03 00:42:00,19.0,13.0,30.04,NW,317,5.0,10.0,76,0.00,,,0.00,,2013-03-03 05:42:00,
2013-03-03 00:52:00,18.0,12.0,30.03,NNW,333,4.0,10.0,76,0.00,,,0.00,,2013-03-03 05:52:00,
2013-03-03 01:02:00,18.0,12.0,30.04,WNW,298,4.0,7.0,77,0.00,,,0.00,,2013-03-03 06:02:00,
2013-03-03 01:11:00,18.0,12.0,30.04,WNW,298,4.0,7.0,77,0.00,,,0.00,,2013-03-03 06:11:00,
2013-03-03 01:21:00,17.0,11.0,30.04,NNW,336,4.0,5.0,77,0.00,,,0.00,,2013-03-03 06:21:00,
2013-03-03 01:32:00,17.0,11.0,30.04,NNW,336,2.0,5.0,78,0.00,,,0.00,,2013-03-03 06:32:00,
2013-03-03 01:42:00,17.0,11.0,30.04,NNW,336,2.0,5.0,78,0.00,,,0.00,,2013-03-03 06:42:00,
2013-03-03 01:52:00,16.0,10.0,30.04,NNW,336,0.0,5.0,76,0.00,,,0.00,,2013-03-03 06:52:00,
2013-03-03 02:01:00,12.0,7.0,30.03,NNW,336,0.0,0.0,80,0.00,,,0.00,,2013-03-03 07:01:00,
2013-03-03 02:11:00,12.0,7.0,30.03,NNW,336,0.0,0.0,80,0.00,,,0.00,,2013-03-03 07:11:00,
2013-03-03 02:21:00,11.0,7.0,30.03,NNW,336,3.0,5.0,84,0.00,,,0.00,,2013-03-03 07:21:00,
2013-03-03 02:32:00,10.0,6.0,30.04,NNW,336,1.0,3.0,84,0.00,,,0.00,,2013-03-03 07:32:00,
2013-03-03 02:42:00,10.0,6.0,30.04,NNW,336,1.0,3.0,84,0.00,,,0.00,,2013-03-03 07:42:00,
2013-03-03 02:52:00,8.0,4.0,30.03,NNW,336,1.0,3.0,84,0.00,,,0.00,,2013-03-03 07:52:00,
2013-03-03 03:01:00,7.0,3.0,30.03,NNW,336,0.0,1.0,85,0.00,,,0.00,,2013-03-03 08:01:00,
2013-03-03 03:11:00,7.0,3.0,30.03,NNW,336,0.0,1.0,85,0.00,,,0.00,,2013-03-03 08:11:00,
2013-03-03 03:21:00,5.0,2.0,30.03,NNW,336,0.0,0.0,85,0.00,,,0.00,,2013-03-03 08:21:00,
2013-03-03 03:31:00,5.0,2.0,30.02,NNW,336,0.0,0.0,85,0.00,,,0.00,,2013-03-03 08:31:00,
2013-03-03 03:42:00,5.0,2.0,30.02,NNW,336,0.0,0.0,85,0.00,,,0.00,,2013-03-03 08:42:00,
2013-03-03 03:54:00,4.0,1.0,30.02,NNW,336,0.0,0.0,86,0.00,,,0.00,,2013-03-03 08:54:00,
2013-03-03 04:01:00,4.0,1.0,30.02,NNW,336,0.0,0.0,85,0.00,,,0.00,,2013-03-03 09:01:00,
2013-03-03 04:11:00,4.0,1.0,30.02,NNW,336,0.0,0.0,85,0.00,,,0.00,,2013-03-03 09:11:00,
2013-03-03 04:21:00,3.0,0.0,30.02,NNW,336,0.0,0.0,85,0.00,,,0.00,,2013-03-03 09:21:00,
2013-03-03 04:32:00,3.0,0.0,30.02,NNW,336,0.0,0.0,85,0.00,,,0.00,,2013-03-03 09:32:00,
2013-03-03 04:41:00,3.0,0.0,30.02,NNW,336,0.0,0.0,85,0.00,,,0.00,,2013-03-03 09:41:00,
2013-03-03 04:52:00,3.0,0.0,30.02,NNW,336,0.0,0.0,85,0.00,,,0.00,,2013-03-03 09:52:00,
2013-03-03 05:01:00,3.0,0.0,30.02,NNW,336,0.0,0.0,85,0.00,,,0.00,,2013-03-03 10:01:00,
2013-03-03 05:11:00,3.0,0.0,30.02,NNW,336,0.0,0.0,85,0.00,,,0.00,,2013-03-03 10:11:00,
2013-03-03 05:21:00,2.0,-1.0,30.01,NNW,336,0.0,0.0,85,0.00,,,0.00,,2013-03-03 10:21:00,
2013-03-03 05:32:00,1.0,-2.0,30.01,NNW,336,0.0,2.0,85,0.00,,,0.00,,2013-03-03 10:32:00,
2013-03-03 05:42:00,1.0,-2.0,30.01,NNW,336,0.0,2.0,85,0.00,,,0.00,,2013-03-03 10:42:00,
2013-03-03 05:52:00,1.0,-2.0,30.02,NNW,336,0.0,0.0,85,0.00,,,0.00,,2013-03-03 10:52:00,
2013-03-03 06:01:00,1.0,-2.0,30.02,NNW,336,0.0,1.0,85,0.00,,,0.00,,2013-03-03 11:01:00,
2013-03-03 06:11:00,1.0,-2.0,30.02,NNW,336,0.0,1.0,85,0.00,,,0.00,,2013-03-03 11:11:00,
2013-03-03 06:22:00,1.0,-2.0,30.02,NNW,336,0.0,1.0,85,0.00,,,0.00,,2013-03-03 11:22:00,
2013-03-03 06:32:00,0.0,-4.0,30.02,NNW,336,0.0,0.0,84,0.00,,,0.00,,2013-03-03 11:32:00,
2013-03-03 06:42:00,0.0,-4.0,30.02,NNW,336,0.0,0.0,84,0.00,,,0.00,,2013-03-03 11:42:00,
2013-03-03 06:53:00,0.0,-3.0,30.03,NNW,336,0.0,0.0,85,0.00,,,0.00,,2013-03-03 11:53:00,
2013-03-03 07:01:00,0.0,-3.0,30.03,NNW,336,0.0,1.0,85,0.00,,,0.00,,2013-03-03 12:01:00,
2013-03-03 07:11:00,0.0,-3.0,30.03,NNW,336,0.0,1.0,85,0.00,,,0.00,,2013-03-03 12:11:00,
2013-03-03 07:21:00,0.0,-4.0,30.03,NNW,336,0.0,2.0,84,0.00,,,0.00,,2013-03-03 12:21:00,
2013-03-03 07:32:00,-1.0,-5.0,30.03,NNW,336,0.0,0.0,84,0.00,,,0.00,,2013-03-03 12:32:00,
2013-03-03 07:43:00,-1.0,-5.0,30.03,NNW,336,0.0,0.0,84,0.00,,,0.00,,2013-03-03 12:43:00,
2013-03-03 07:53:00,0.0,-4.0,30.03,NNW,336,1.0,2.0,84,0.00,,,0.00,,2013-03-03 12:53:00,
2013-03-03 08:01:00,0.0,-4.0,30.04,NNW,336,0.0,0.0,84,0.00,,,0.00,,2013-03-03 13:01:00,
2013-03-03 08:11:00,0.0,-4.0,30.04,NNW,336,0.0,0.0,84,0.00,,,0.00,,2013-03-03 13:11:00,
2013-03-03 08:22:00,2.0,-1.0,30.04,NNW,336,0.0,0.0,85,0.00,,,0.00,,2013-03-03 13:22:00,
2013-03-03 08:32:00,4.0,0.0,30.04,NNW,336,0.0,0.0,83,0.00,,,0.00,,2013-03-03 13:32:00,
2013-03-03 08:42:00,4.0,0.0,30.04,NNW,336,0.0,0.0,83,0.00,,,0.00,,2013-03-03 13:42:00,
2013-03-03 08:52:00,7.0,2.0,30.04,NNW,336,0.0,0.0,81,0.00,,,0.00,,2013-03-03 13:52:00,
2013-03-03 09:02:00,10.0,5.0,30.04,NNW,341,1.0,6.0,79,0.00,,,0.00,,2013-03-03 14:02:00,
2013-03-03 09:11:00,10.0,5.0,30.04,NNW,341,1.0,6.0,79,0.00,,,0.00,,2013-03-03 14:11:00,
2013-03-03 09:21:00,14.0,10.0,30.04,NNW,348,6.0,9.0,82,0.00,,,0.00,,2013-03-03 14:21:00,
2013-03-03 09:32:00,16.0,10.0,30.04,NW,323,2.0,10.0,76,0.00,,,0.00,,2013-03-03 14:32:00,
2013-03-03 09:42:00,16.0,10.0,30.04,NW,323,2.0,10.0,76,0.00,,,0.00,,2013-03-03 14:42:00,
2013-03-03 09:52:00,16.0,9.0,30.04,NNW,331,3.0,5.0,75,0.00,,,0.00,,2013-03-03 14:52:00,
2013-03-03 10:02:00,17.0,10.0,30.04,NW,320,4.0,7.0,74,0.00,,,0.00,,2013-03-03 15:02:00,
2013-03-03 10:11:00,17.0,10.0,30.04,NW,320,4.0,7.0,74,0.00,,,0.00,,2013-03-03 15:11:00,
2013-03-03 10:22:00,18.0,11.0,30.04,North,9,6.0,14.0,72,0.00,,,0.00,,2013-03-03 15:22:00,
2013-03-03 10:32:00,18.0,11.0,30.04,NNW,343,9.0,11.0,72,0.00,,,0.00,,2013-03-03 15:32:00,
2013-03-03 10:42:00,18.0,11.0,30.04,NNW,343,9.0,11.0,72,0.00,,,0.00,,2013-03-03 15:42:00,
2013-03-03 10:52:00,19.0,11.0,30.04,North,5,2.0,10.0,72,0.00,,,0.00,,2013-03-03 15:52:00,
2013-03-03 11:02:00,20.0,12.0,30.03,North,11,5.0,10.0,71,0.00,,,0.00,,2013-03-03 16:02:00,
2013-03-03 11:12:00,20.0,12.0,30.03,North,11,5.0,10.0,71,0.00,,,0.00,,2013-03-03 16:12:00,
2013-03-03 11:22:00,18.0,11.0,30.03,NW,310,4.0,10.0,72,0.00,,,0.00,,2013-03-03 16:22:00,
2013-03-03 11:32:00,19.0,11.0,30.04,NW,314,1.0,6.0,70,0.00,,,0.00,,2013-03-03 16:32:00,
2013-03-03 11:42:00,19.0,11.0,30.04,NW,314,1.0,6.0,70,0.00,,,0.00,,2013-03-03 16:42:00,
2013-03-03 11:52:00,20.0,12.0,30.03,West,271,1.0,7.0,70,0.00,,,0.00,,2013-03-03 16:52:00,
2013-03-03 12:01:00,20.0,12.0,30.03,West,274,6.0,11.0,72,0.00,,,0.00,,2013-03-03 17:01:00,
2013-03-03 12:11:00,20.0,14.0,30.03,West,278,7.0,13.0,76,0.00,,,0.00,,2013-03-03 17:11:00,
2013-03-03 12:22:00,20.0,14.0,30.03,West,278,7.0,13.0,76,0.00,,,0.00,,2013-03-03 17:22:00,
2013-03-03 12:32:00,19.0,13.0,30.03,WNW,286,10.0,12.0,77,0.00,,,0.00,,2013-03-03 17:32:00,
2013-03-03 12:42:00,19.0,13.0,30.03,WNW,286,10.0,12.0,77,0.00,,,0.00,,2013-03-03 17:42:00,
2013-03-03 12:52:00,20.0,14.0,30.03,WNW,282,5.0,11.0,76,0.00,,,0.00,,2013-03-03 17:52:00,
2013-03-03 13:02:00,20.0,14.0,30.02,WNW,300,8.0,12.0,76,0.00,,,0.00,,2013-03-03 18:02:00,
2013-03-03 13:11:00,20.0,14.0,30.02,WNW,300,8.0,12.0,76,0.00,,,0.00,,2013-03-03 18:11:00,
2013-03-03 13:21:00,20.0,14.0,30.02,WSW,252,5.0,14.0,77,0.00,,,0.00,,2013-03-03 18:21:00,
2013-03-03 13:32:00,21.0,14.0,30.01,WNW,285,11.0,13.0,75,0.00,,,0.00,,2013-03-03 18:32:00,
2013-03-03 13:42:00,21.0,14.0,30.01,WNW,285,11.0,13.0,75,0.00,,,0.00,,2013-03-03 18:42:00,
2013-03-03 13:52:00,22.0,15.0,30.01,WNW,283,10.0,14.0,73,0.00,,,0.00,,2013-03-03 18:52:00,
2013-03-03 14:02:00,23.0,16.0,30.01,NW,305,8.0,13.0,73,0.00,,,0.00,,2013-03-03 19:02:00,
2013-03-03 14:11:00,24.0,17.0,30.01,WNW,298,7.0,11.0,74,0.00,,,0.00,,2013-03-03 19:11:00,
2013-03-03 14:22:00,24.0,17.0,30.01,WNW,298,7.0,11.0,74,0.00,,,0.00,,2013-03-03 19:22:00,
2013-03-03 14:32:00,24.0,14.0,29.99,NNW,337,7.0,11.0,65,0.00,,,0.00,,2013-03-03 19:32:00,
2013-03-03 14:42:00,24.0,14.0,29.99,NNW,337,7.0,11.0,65,0.00,,,0.00,,2013-03-03 19:42:00,
2013-03-03 14:52:00,24.0,14.0,30.00,WNW,284,6.0,12.0,65,0.00,,,0.00,,2013-03-03 19:52:00,
2013-03-03 15:01:00,25.0,15.0,29.99,NW,310,8.0,12.0,64,0.00,,,0.00,,2013-03-03 20:01:00,
2013-03-03 15:11:00,25.0,15.0,29.99,NW,310,8.0,12.0,64,0.00,,,0.00,,2013-03-03 20:11:00,
2013-03-03 15:21:00,24.0,16.0,29.99,WNW,298,6.0,13.0,71,0.00,,,0.00,,2013-03-03 20:21:00,
2013-03-03 15:32:00,24.0,16.0,29.99,WNW,290,7.0,15.0,71,0.00,,,0.00,,2013-03-03 20:32:00,
2013-03-03 15:42:00,24.0,16.0,29.99,WNW,290,7.0,15.0,71,0.00,,,0.00,,2013-03-03 20:42:00,
2013-03-03 15:53:00,24.0,16.0,29.99,West,269,8.0,15.0,72,0.00,,,0.00,,2013-03-03 20:53:00,
2013-03-03 16:02:00,24.0,16.0,29.99,West,272,7.0,16.0,72,0.00,,,0.00,,2013-03-03 21:02:00,
2013-03-03 16:11:00,24.0,16.0,29.99,West,272,7.0,16.0,72,0.00,,,0.00,,2013-03-03 21:11:00,
2013-03-03 16:22:00,24.0,17.0,29.99,WNW,297,10.0,15.0,74,0.00,,,0.00,,2013-03-03 21:22:00,
2013-03-03 16:32:00,24.0,17.0,29.99,WNW,292,12.0,16.0,74,0.00,,,0.00,,2013-03-03 21:32:00,
2013-03-03 16:42:00,24.0,17.0,29.99,WNW,292,12.0,16.0,74,0.00,,,0.00,,2013-03-03 21:42:00,
2013-03-03 16:52:00,24.0,17.0,29.99,West,281,8.0,17.0,75,0.00,,,0.00,,2013-03-03 21:52:00,
2013-03-03 17:01:00,24.0,17.0,29.99,West,277,7.0,14.0,74,0.00,,,0.00,,2013-03-03 22:01:00,
2013-03-03 17:11:00,24.0,17.0,29.99,West,277,7.0,14.0,74,0.00,,,0.00,,2013-03-03 22:11:00,
2013-03-03 17:22:00,24.0,17.0,30.00,WNW,287,10.0,15.0,74,0.00,,,0.00,,2013-03-03 22:22:00,
2013-03-03 17:32:00,24.0,17.0,30.00,WNW,291,9.0,14.0,74,0.00,,,0.00,,2013-03-03 22:32:00,
2013-03-03 17:42:00,24.0,17.0,30.00,WNW,291,9.0,14.0,74,0.00,,,0.00,,2013-03-03 22:42:00,
2013-03-03 17:52:00,24.0,17.0,30.00,WNW,290,8.0,14.0,73,0.00,,,0.00,,2013-03-03 22:52:00,
2013-03-03 18:01:00,24.0,17.0,30.01,WNW,297,7.0,13.0,73,0.00,,,0.00,,2013-03-03 23:01:00,
2013-03-03 18:11:00,24.0,17.0,30.01,WNW,297,7.0,13.0,73,0.00,,,0.00,,2013-03-03 23:11:00,
2013-03-03 18:21:00,24.0,17.0,30.01,NW,319,7.0,13.0,73,0.00,,,0.00,,2013-03-03 23:21:00,
2013-03-03 18:32:00,24.0,16.0,30.01,NW,311,6.0,14.0,72,0.00,,,0.00,,2013-03-03 23:32:00,
2013-03-03 18:42:00,24.0,16.0,30.01,NW,311,6.0,14.0,72,0.00,,,0.00,,2013-03-03 23:42:00,
2013-03-03 18:52:00,23.0,16.0,30.01,NW,316,5.0,13.0,73,0.00,,,0.00,,2013-03-03 23:52:00,
2013-03-03 19:02:00,23.0,16.0,30.01,NNW,337,6.0,11.0,74,0.00,,,0.00,,2013-03-04 00:02:00,
2013-03-03 19:11:00,23.0,16.0,30.01,NNW,337,6.0,11.0,74,0.00,,,0.00,,2013-03-04 00:11:00,
2013-03-03 19:21:00,22.0,16.0,30.02,North,355,6.0,10.0,76,0.00,,,0.00,,2013-03-04 00:21:00,
2013-03-03 19:32:00,22.0,16.0,30.02,NNW,346,4.0,12.0,78,0.00,,,0.00,,2013-03-04 00:32:00,
2013-03-03 19:42:00,22.0,16.0,30.02,NNW,346,4.0,12.0,78,0.00,,,0.00,,2013-03-04 00:42:00,
2013-03-03 19:52:00,21.0,15.0,30.02,NNW,341,7.0,11.0,78,0.00,,,0.00,,2013-03-04 00:52:00,
2013-03-03 20:01:00,21.0,16.0,30.03,North,355,10.0,15.0,79,0.00,,,0.00,,2013-03-04 01:01:00,
2013-03-03 20:12:00,21.0,16.0,30.03,North,355,10.0,15.0,79,0.00,,,0.00,,2013-03-04 01:12:00,
2013-03-03 20:21:00,20.0,15.0,30.02,NNW,339,8.0,11.0,81,0.00,,,0.00,,2013-03-04 01:21:00,
2013-03-03 20:32:00,19.0,14.0,30.05,NNW,336,6.0,12.0,82,0.00,,,0.00,,2013-03-04 01:32:00,
2013-03-03 20:42:00,19.0,14.0,30.05,NNW,336,6.0,12.0,82,0.00,,,0.00,,2013-03-04 01:42:00,
2013-03-03 20:52:00,19.0,15.0,30.03,NNW,327,6.0,12.0,83,0.00,,,0.00,,2013-03-04 01:52:00,
2013-03-03 21:01:00,18.0,14.0,30.04,NNW,341,7.0,12.0,84,0.00,,,0.00,,2013-03-04 02:01:00,
2013-03-03 21:11:00,18.0,14.0,30.04,NW,315,5.0,11.0,84,0.00,,,0.00,,2013-03-04 02:11:00,
2013-03-03 21:22:00,18.0,14.0,30.04,NW,315,5.0,11.0,84,0.00,,,0.00,,2013-03-04 02:22:00,
2013-03-03 21:32:00,18.0,14.0,30.04,NW,321,5.0,10.0,85,0.00,,,0.00,,2013-03-04 02:32:00,
2013-03-03 21:42:00,18.0,14.0,30.04,NW,321,5.0,10.0,85,0.00,,,0.00,,2013-03-04 02:42:00,
2013-03-03 21:53:00,18.0,14.0,30.04,NNW,327,5.0,9.0,85,0.00,,,0.00,,2013-03-04 02:53:00,
2013-03-03 22:02:00,18.0,14.0,30.05,NW,317,2.0,11.0,85,0.00,,,0.00,,2013-03-04 03:02:00,
2013-03-03 22:11:00,18.0,14.0,30.05,NW,317,2.0,11.0,85,0.00,,,0.00,,2013-03-04 03:11:00,
2013-03-03 22:22:00,17.0,13.0,30.04,NW,322,1.0,6.0,85,0.00,,,0.00,,2013-03-04 03:22:00,
2013-03-03 22:32:00,16.0,12.0,30.04,NW,322,0.0,0.0,83,0.00,,,0.00,,2013-03-04 03:32:00,
2013-03-03 22:42:00,13.0,10.0,30.04,NW,322,0.0,0.0,86,0.00,,,0.00,,2013-03-04 03:42:00,
2013-03-03 22:53:00,13.0,10.0,30.04,NW,322,0.0,0.0,86,0.00,,,0.00,,2013-03-04 03:53:00,
2013-03-03 23:01:00,12.0,9.0,30.04,NW,322,0.0,0.0,86,0.00,,,0.00,,2013-03-04 04:01:00,
2013-03-03 23:11:00,12.0,9.0,30.04,NW,322,0.0,0.0,86,0.00,,,0.00,,2013-03-04 04:11:00,
2013-03-03 23:22:00,11.0,8.0,30.03,NW,322,0.0,0.0,87,0.00,,,0.00,,2013-03-04 04:22:00,
2013-03-03 23:32:00,10.0,7.0,30.04,NW,322,0.0,0.0,88,0.00,,,0.00,,2013-03-04 04:32:00,
2013-03-03 23:42:00,10.0,7.0,30.04,NW,322,0.0,0.0,88,0.00,,,0.00,,2013-03-04 04:42:00,
2013-03-03 23:52:00,10.0,7.0,30.04,NW,322,0.0,0.0,88,0.00,,,0.00,,2013-03-04 04:52:00,